Previsão horária em Al Marfa

Hoje, 16 Janeiro, Sábado

Tempo Temperatura Precipitação Vento Pressão Humidade
00:00 +15°C° 0 mm 1 m/s 761 mmHg 74%
01:00 +13°C° 0 mm 0 m/s 760 mmHg 75%
02:00 +13°C° 0 mm 0 m/s 760 mmHg 74%
03:00 +12°C° 0 mm 0 m/s 760 mmHg 73%
04:00 +13°C° 0 mm 1 m/s 760 mmHg 73%
05:00 +13°C° 0 mm 1 m/s 760 mmHg 71%
06:00 +13°C° 0 mm 1 m/s 760 mmHg 68%
07:00 +13°C° 0 mm 1 m/s 761 mmHg 66%
08:00 +16°C° 0 mm 1 m/s 761 mmHg 54%
09:00 +19°C° 0 mm 1 m/s 761 mmHg 41%
10:00 +22°C° 0 mm 1 m/s 761 mmHg 28%
11:00 +23°C° 0 mm 2 m/s 761 mmHg 26%
12:00 +25°C° 0 mm 2 m/s 761 mmHg 23%
13:00 +26°C° 0 mm 3 m/s 760 mmHg 21%
14:00 +26°C° 0 mm 3 m/s 760 mmHg 22%
15:00 +26°C° 0 mm 3 m/s 759 mmHg 24%
16:00 +25°C° 0 mm 3 m/s 759 mmHg 26%
17:00 +23°C° 0 mm 2 m/s 759 mmHg 33%
18:00 +21°C° 0 mm 2 m/s 759 mmHg 40%
19:00 +20°C° 0 mm 1 m/s 759 mmHg 47%
20:00 +19°C° 0 mm 1 m/s 759 mmHg 48%
21:00 +19°C° 0 mm 1 m/s 759 mmHg 49%
22:00 +16°C° 0 mm 0 m/s 759 mmHg 50%
23:00 +16°C° 0 mm 0 m/s 759 mmHg 49%

Amanhã, 17 Janeiro, Domingo

Tempo Temperatura Precipitação Vento Pressão Humidade
00:00 +16°C° 0 mm 0 m/s 759 mmHg 49%
01:00 +16°C° 0 mm 0 m/s 759 mmHg 48%
02:00 +16°C° 0 mm 0 m/s 759 mmHg 47%
03:00 +15°C° 0 mm 0 m/s 758 mmHg 46%
04:00 +15°C° 0 mm 0 m/s 758 mmHg 45%
05:00 +18°C° 0 mm 1 m/s 759 mmHg 42%
06:00 +18°C° 0 mm 1 m/s 759 mmHg 38%
07:00 +17°C° 0 mm 2 m/s 759 mmHg 35%
08:00 +20°C° 0 mm 2 m/s 760 mmHg 32%
09:00 +23°C° 0 mm 2 m/s 760 mmHg 29%
10:00 +25°C° 0 mm 2 m/s 760 mmHg 26%
11:00 +26°C° 0 mm 1 m/s 759 mmHg 26%
12:00 +27°C° 0 mm 1 m/s 759 mmHg 26%
13:00 +28°C° 0 mm 1 m/s 758 mmHg 26%
14:00 +28°C° 0 mm 2 m/s 758 mmHg 27%
15:00 +28°C° 0 mm 3 m/s 758 mmHg 28%
16:00 +28°C° 0 mm 4 m/s 758 mmHg 29%
17:00 +26°C° 0 mm 3 m/s 758 mmHg 39%
18:00 +24°C° 0 mm 3 m/s 758 mmHg 48%
19:00 +21°C° 0 mm 3 m/s 759 mmHg 58%
20:00 +21°C° 0 mm 2 m/s 759 mmHg 57%
21:00 +21°C° 0 mm 2 m/s 759 mmHg 57%
22:00 +21°C° 0 mm 2 m/s 759 mmHg 56%
23:00 +21°C° 0 mm 3 m/s 759 mmHg 54%

Depois de amanhã, 18 Janeiro, Segunda-feira

Tempo Temperatura Precipitação Vento Pressão Humidade
00:00 +21°C° 0 mm 3 m/s 759 mmHg 51%
01:00 +21°C° 0 mm 3 m/s 759 mmHg 49%
02:00 +20°C° 0 mm 3 m/s 759 mmHg 48%
03:00 +20°C° 0 mm 3 m/s 759 mmHg 47%
04:00 +20°C° 0 mm 3 m/s 758 mmHg 46%
05:00 +20°C° 0 mm 3 m/s 759 mmHg 44%
06:00 +20°C° 0 mm 3 m/s 759 mmHg 42%
07:00 +20°C° 0 mm 3 m/s 760 mmHg 40%
08:00 +22°C° 0 mm 3 m/s 760 mmHg 34%
09:00 +25°C° 0 mm 3 m/s 761 mmHg 29%
10:00 +26°C° 0 mm 4 m/s 761 mmHg 24%
11:00 +27°C° 0 mm 4 m/s 761 mmHg 25%
12:00 +29°C° 0 mm 4 m/s 761 mmHg 26%
13:00 +30°C° 0 mm 5 m/s 760 mmHg 27%
14:00 +29°C° 0 mm 5 m/s 760 mmHg 33%
15:00 +28°C° 0 mm 5 m/s 760 mmHg 38%
16:00 +27°C° 0 mm 5 m/s 760 mmHg 44%
17:00 +25°C° 0 mm 5 m/s 760 mmHg 57%
18:00 +23°C° 0 mm 4 m/s 761 mmHg 71%
19:00 +21°C° 0 mm 4 m/s 761 mmHg 84%
20:00 +21°C° 0 mm 4 m/s 761 mmHg 85%
21:00 +21°C° 0 mm 4 m/s 762 mmHg 86%
22:00 +20°C° 0 mm 4 m/s 762 mmHg 87%
23:00 +20°C° 0 mm 4 m/s 762 mmHg 85%

19 Janeiro, Terça-feira

Tempo Temperatura Precipitação Vento Pressão Humidade
00:00 +20°C° 0 mm 4 m/s 762 mmHg 82%
01:00 +20°C° 0 mm 4 m/s 762 mmHg 80%
02:00 +20°C° 0 mm 4 m/s 762 mmHg 80%
03:00 +20°C° 0 mm 4 m/s 761 mmHg 81%
04:00 +19°C° 0 mm 4 m/s 761 mmHg 81%
05:00 +19°C° 0 mm 4 m/s 762 mmHg 81%
06:00 +19°C° 0 mm 4 m/s 762 mmHg 81%
07:00 +19°C° 0 mm 4 m/s 762 mmHg 81%
08:00 +21°C° 0 mm 5 m/s 763 mmHg 72%
09:00 +22°C° 0 mm 5 m/s 763 mmHg 63%
10:00 +23°C° 0 mm 5 m/s 763 mmHg 54%
11:00 +25°C° 0 mm 5 m/s 763 mmHg 50%
12:00 +25°C° 0 mm 5 m/s 762 mmHg 47%
13:00 +26°C° 0 mm 5 m/s 762 mmHg 44%
14:00 +25°C° 0 mm 5 m/s 761 mmHg 45%
15:00 +25°C° 0 mm 5 m/s 761 mmHg 47%
16:00 +25°C° 0 mm 5 m/s 760 mmHg 48%
17:00 +22°C° 0 mm 4 m/s 761 mmHg 56%
18:00 +21°C° 0 mm 4 m/s 761 mmHg 63%
19:00 +20°C° 0 mm 4 m/s 761 mmHg 71%
20:00 +20°C° 0 mm 3 m/s 761 mmHg 72%
21:00 +19°C° 0 mm 3 m/s 762 mmHg 73%
22:00 +19°C° 0 mm 3 m/s 762 mmHg 74%
23:00 +19°C° 0 mm 3 m/s 762 mmHg 75%

20 Janeiro, Quarta-feira

Tempo Temperatura Precipitação Vento Pressão Humidade
00:00 +19°C° 0 mm 4 m/s 762 mmHg 75%
01:00 +19°C° 0 mm 4 m/s 762 mmHg 76%
02:00 +18°C° 0 mm 4 m/s 761 mmHg 76%
03:00 +18°C° 0 mm 4 m/s 761 mmHg 77%
04:00 +18°C° 0 mm 4 m/s 761 mmHg 78%
05:00 +18°C° 0 mm 4 m/s 761 mmHg 78%
06:00 +18°C° 0 mm 4 m/s 762 mmHg 78%
07:00 +18°C° 0 mm 4 m/s 762 mmHg 78%
08:00 +20°C° 0 mm 3 m/s 762 mmHg 70%
09:00 +21°C° 0 mm 3 m/s 762 mmHg 61%
10:00 +24°C° 0 mm 3 m/s 763 mmHg 52%
11:00 +25°C° 0 mm 3 m/s 762 mmHg 47%
12:00 +26°C° 0 mm 2 m/s 762 mmHg 42%
13:00 +26°C° 0 mm 2 m/s 761 mmHg 36%
14:00 +26°C° 0 mm 2 m/s 761 mmHg 37%
15:00 +26°C° 0 mm 2 m/s 760 mmHg 37%
16:00 +26°C° 0 mm 2 m/s 759 mmHg 37%
17:00 +25°C° 0 mm 2 m/s 760 mmHg 43%
18:00 +23°C° 0 mm 2 m/s 760 mmHg 49%
19:00 +21°C° 0 mm 2 m/s 761 mmHg 56%
20:00 +20°C° 0 mm 2 m/s 761 mmHg 56%
21:00 +21°C° 0 mm 1 m/s 761 mmHg 56%
22:00 +20°C° 0 mm 1 m/s 761 mmHg 56%
23:00 +20°C° 0 mm 1 m/s 761 mmHg 55%

21 Janeiro, Quinta-feira

Tempo Temperatura Precipitação Vento Pressão Humidade
00:00 +19°C° 0 mm 1 m/s 761 mmHg 55%
01:00 +17°C° 0 mm 0 m/s 761 mmHg 55%
02:00 +17°C° 0 mm 0 m/s 761 mmHg 54%
03:00 +19°C° 0 mm 1 m/s 761 mmHg 53%
04:00 +19°C° 0 mm 1 m/s 760 mmHg 51%
05:00 +18°C° 0 mm 2 m/s 761 mmHg 49%
06:00 +19°C° 0 mm 2 m/s 761 mmHg 46%
07:00 +19°C° 0 mm 3 m/s 762 mmHg 43%
08:00 +20°C° 0 mm 5 m/s 762 mmHg 49%
09:00 +22°C° 0 mm 6 m/s 763 mmHg 55%
10:00 +23°C° 0 mm 8 m/s 763 mmHg 61%
11:00 +23°C° 0 mm 8 m/s 763 mmHg 60%
12:00 +23°C° 0 mm 9 m/s 763 mmHg 60%
13:00 +23°C° 0 mm 10 m/s 763 mmHg 59%
14:00 +23°C° 0 mm 10 m/s 763 mmHg 59%
15:00 +22°C° 0 mm 10 m/s 763 mmHg 58%
16:00 +22°C° 0 mm 10 m/s 763 mmHg 57%
17:00 +21°C° 0 mm 10 m/s 763 mmHg 59%
18:00 +19°C° 0 mm 9 m/s 763 mmHg 62%
19:00 +18°C° 0 mm 9 m/s 764 mmHg 64%
20:00 +18°C° 0 mm 9 m/s 764 mmHg 64%
21:00 +18°C° 0 mm 9 m/s 764 mmHg 64%
22:00 +18°C° 0 mm 9 m/s 764 mmHg 64%
23:00 +17°C° 0 mm 9 m/s 764 mmHg 66%
Mostrar mais

Necessitamos do seu Consentimento

A Meteoprog e os seus Fornecedores de Serviços podem armazenar e aceder a dados pessoais como cookies, identificadores do dispositivo ou outras tecnologias semelhantes existentes no seu dispositivo e processar estes dados para personalizar conteúdos e anúncios, assim como funcionalidades nas redes sociais e análise de tráfego.

  • Armazenar e/ou aceder a informações no seu dispositivo

    Os cookies, identificadores do dispositivo ou outras informações podem ser armazenados ou acedidos no seu dispositivo, para os fins acima indicados.

  • Anúncios e conteúdos personalizados, medição de anúncios e conteúdos, dados sobre o público-alvo e desenvolvimento de produtos

    Os anúncios e os conteúdos podem ser personalizados com base num perfil. Podem ser adicionados dados adicionais para uma maior personalização dos anúncios e dos conteúdos. A eficácia dos anúncios e dos conteúdos pode ser medida. Podem ser obtidas informações sobre o público que visualizou os anúncios e os conteúdos. Estes dados podem ser usados para desenvolver ou melhorar sistemas, softwares ou a experiência do utilizador.

Ao clicar em "Eu concordo”, permitirá o uso de cookies, identificadores do dispositivo e web beacons mencionados ou outras tecnologias semelhantes. As configurações do navegador do seu dispositivo podem ser alteradas.

Para certos fins, podem ser invocados interesses legítimos ao invés de consentimento. Pode ler mais informação sobre este assunto na nossa Política de Privacidade e Cookies.